Location: Unspecified
(0.0000°N, 0.0000°E)
Time: 17:34:56
(UTC+00:00)

deb DAPP - Visible Passes

Search period start: 14 December 2025 00:00
Search period end: 24 December 2025 00:00
Orbit: 607 x 945 km, 99.0° (Epoch: 13 December)

Date Brightness Start Highest point End Pass type
(mag) Time Alt. Az. Time Alt. Az. Time Alt. Az.
14 Dec ? 19:08:30 10° SSE 19:13:34 90° SSE 19:19:08 10° NNW visible
15 Dec ? 18:35:23 10° SE 18:40:04 36° ENE 18:45:08 10° N visible
15 Dec ? 20:16:10 10° SW 20:19:01 15° WSW 20:22:00 10° WNW visible
16 Dec ? 19:40:37 10° S 19:45:22 38° WSW 19:50:30 10° NW visible
17 Dec ? 19:06:33 10° SSE 19:11:47 85° ENE 19:17:27 10° N visible
18 Dec ? 18:33:31 10° SE 18:38:17 34° ENE 18:43:22 10° NNE visible
18 Dec ? 20:13:55 10° SW 20:17:11 17° WSW 20:20:37 10° WNW visible
19 Dec ? 19:38:36 10° S 19:43:33 42° WSW 19:48:53 10° NNW visible
20 Dec ? 19:04:37 10° SSE 19:09:58 80° ENE 19:15:45 10° N visible
21 Dec ? 18:31:40 10° SE 18:36:29 33° ENE 18:41:34 10° NNE visible
21 Dec ? 20:11:42 10° SW 20:15:21 19° WSW 20:19:10 10° WNW visible
22 Dec ? 19:36:34 10° S 19:41:43 45° WSW 19:47:14 10° NNW visible
23 Dec ? 19:02:41 10° SSE 19:08:08 75° ENE 19:13:59 10° N visible
